SQ5AAG-2 Weather Reports


time (UTC)temp
C
wind
direction
speed
KPH
gust
KPH
rain 1hr
cm
rain 24hr
cm
rain mn
cm
humidity
%
barometer
mb
20260506180535 21 90 0.0 0.0 0.00 0.00 0.00 50 990.7
20260506180034 22 22 0.0 0.0 0.00 0.00 0.00 49 990.7
20260506175534 22 0 0.0 0.0 0.00 0.00 0.00 49 990.5
20260506175034 22 0 0.0 0.0 0.00 0.00 0.00 48 990.6
20260506174534 22 0 0.0 0.0 0.00 0.00 0.00 47 990.5
20260506174034 23 0 0.0 1.6 0.00 0.00 0.00 46 990.5
20260506173533 23 0 1.6 1.6 0.00 0.00 0.00 45 990.4
20260506173034 25 0 0.0 0.0 0.00 0.00 0.00 43 990.5
20260506172700 26 0 0.0 0.0 0.00 0.00 0.00 42 990.5
20260506172532 26 0 0.0 0.0 0.00 0.00 0.00 42 990.5
20260506172032 26 22 0.0 0.0 0.00 0.00 0.00 41 990.5
20260506171532 25 22 0.0 0.0 0.00 0.00 0.00 42 990.3
20260506171032 25 22 0.0 0.0 0.00 0.00 0.00 43 990.3
20260506170531 23 22 0.0 0.0 0.00 0.00 0.00 45 990.3
20260506170031 23 22 0.0 0.0 0.00 0.00 0.00 45 990.2
20260506165531 23 22 0.0 0.0 0.00 0.00 0.00 45 990.3
20260506165030 23 22 0.0 0.0 0.00 0.00 0.00 45 990.3
20260506164533 23 0 0.0 0.0 0.00 0.00 0.00 44 990.3
20260506163529 24 22 0.0 0.0 0.00 0.00 0.00 43 990.1
20260506163029 25 22 0.0 0.0 0.00 0.00 0.00 43 990.0
20260506162529 23 22 0.0 0.0 0.00 0.00 0.00 44 990.1
20260506162029 24 22 0.0 0.0 0.00 0.00 0.00 42 990.1
20260506161528 25 22 0.0 0.0 0.00 0.00 0.00 41 990.0
20260506161028 25 0 0.0 0.0 0.00 0.00 0.00 40 990.0
20260506160528 27 22 0.0 0.0 0.00 0.00 0.00 38 990.1
20260506160027 29 22 0.0 0.0 0.00 0.00 0.00 37 990.2
20260506155528 29 22 0.0 0.0 0.00 0.00 0.00 37 990.0
20260506155027 27 22 0.0 0.0 0.00 0.00 0.00 38 990.3
20260506154527 26 22 0.0 1.6 0.00 0.00 0.00 40 990.3
20260506154026 26 22 1.6 1.6 0.00 0.00 0.00 41 990.2
20260506153526 25 22 0.0 1.6 0.00 0.00 0.00 43 990.3
20260506153026 24 22 1.6 1.6 0.00 0.00 0.00 44 990.3
20260506152525 24 0 0.0 3.2 0.00 0.00 0.00 44 990.3
20260506152031 24 22 0.0 4.8 0.00 0.00 0.00 43 990.3
20260506152025 24 22 0.0 4.8 0.00 0.00 0.00 43 990.3
20260506151525 24 0 4.8 4.8 0.00 0.00 0.00 43 990.4
20260506151025 24 22 0.0 0.0 0.00 0.00 0.00 43 990.2
20260506150525 24 22 0.0 0.0 0.00 0.00 0.00 43 990.3
20260506150024 24 45 0.0 3.2 0.00 0.00 0.00 42 990.4
20260506145524 25 180 0.0 1.6 0.00 0.00 0.00 42 990.5
20260506145023 25 22 1.6 1.6 0.00 0.00 0.00 42 990.6
20260506144523 25 0 0.0 6.4 0.00 0.00 0.00 41 990.4
20260506144023 25 22 6.4 6.4 0.00 0.00 0.00 41 990.4
20260506143524 25 22 0.0 0.0 0.00 0.00 0.00 41 990.3
20260506143022 25 202 0.0 0.0 0.00 0.00 0.00 41 990.3
20260506142522 25 202 0.0 0.0 0.00 0.00 0.00 41 990.1
20260506142022 25 0 0.0 0.0 0.00 0.00 0.00 41 990.2
20260506141521 25 22 0.0 0.0 0.00 0.00 0.00 41 990.3
20260506141021 25 22 0.0 0.0 0.00 0.00 0.00 40 990.3
20260506140521 25 157 0.0 0.0 0.00 0.00 0.00 40 990.2
20260506140020 25 180 0.0 0.0 0.00 0.00 0.00 40 990.3
20260506135520 25 180 0.0 0.0 0.00 0.00 0.00 40 990.3
20260506135020 25 90 0.0 0.0 0.00 0.00 0.00 40 990.2
20260506134520 25 45 0.0 0.0 0.00 0.00 0.00 41 990.2
20260506134019 25 112 0.0 0.0 0.00 0.00 0.00 41 990.2
20260506133521 25 180 0.0 0.0 0.00 0.00 0.00 41 990.3
20260506133019 25 157 0.0 3.2 0.00 0.00 0.00 41 990.2
20260506132518 25 112 0.0 0.0 0.00 0.00 0.00 41 990.1
20260506132018 25 157 0.0 0.0 0.00 0.00 0.00 41 990.0
20260506131518 25 202 0.0 0.0 0.00 0.00 0.00 41 990.1
20260506131018 25 22 0.0 0.0 0.00 0.00 0.00 41 990.0
20260506130517 25 112 0.0 0.0 0.00 0.00 0.00 41 990.2
20260506130017 25 180 0.0 0.0 0.00 0.00 0.00 41 990.1
20260506125517 25 180 0.0 0.0 0.00 0.00 0.00 42 990.3
20260506125017 25 135 0.0 0.0 0.00 0.00 0.00 42 990.3
20260506124516 25 247 0.0 0.0 0.00 0.00 0.00 42 990.3
20260506124016 25 247 0.0 0.0 0.00 0.00 0.00 43 990.3
20260506123516 25 22 0.0 0.0 0.00 0.00 0.00 43 990.3
20260506123015 24 112 0.0 0.0 0.00 0.00 0.00 43 990.4
20260506122515 23 180 0.0 0.0 0.00 0.00 0.00 44 990.5
20260506120143 25 22 0.0 0.0 0.00 0.00 0.00 42 990.3
20260506115642 25 90 0.0 0.0 0.00 0.00 0.00 42 990.1
20260506115142 25 157 0.0 0.0 0.00 0.00 0.00 42 990.1
20260506114642 25 135 0.0 0.0 0.00 0.00 0.00 41 990.2
20260506114141 25 112 0.0 0.0 0.00 0.00 0.00 41 990.3
20260506113643 25 180 0.0 1.6 0.00 0.00 0.00 41 990.2
20260506113141 25 202 1.6 3.2 0.00 0.00 0.00 41 990.0
20260506112640 25 202 3.2 3.2 0.00 0.00 0.00 41 990.0
20260506112353 25 202 0.0 0.0 0.00 0.00 0.00 41 990.1
20260506112140 25 202 0.0 0.0 0.00 0.00 0.00 41 990.1
20260506111640 25 180 0.0 1.6 0.00 0.00 0.00 41 990.3
20260506111140 25 112 1.6 1.6 0.00 0.00 0.00 41 990.3
20260506110639 25 112 0.0 0.0 0.00 0.00 0.00 41 990.2
20260506110139 25 135 0.0 0.0 0.00 0.00 0.00 41 990.0
20260506105639 25 202 0.0 0.0 0.00 0.00 0.00 41 990.2
20260506105138 25 180 0.0 0.0 0.00 0.00 0.00 41 990.2
20260506104638 25 202 0.0 0.0 0.00 0.00 0.00 41 990.2
20260506104138 25 180 0.0 1.6 0.00 0.00 0.00 41 990.2
20260506103638 24 202 1.6 1.6 0.00 0.00 0.00 42 990.3
20260506103137 24 45 0.0 1.6 0.00 0.00 0.00 42 990.3
20260506102637 24 67 0.0 0.0 0.00 0.00 0.00 42 990.3
20260506102137 24 90 0.0 1.6 0.00 0.00 0.00 43 990.2
20260506101636 23 90 0.0 0.0 0.00 0.00 0.00 43 990.2
20260506101139 23 135 0.0 0.0 0.00 0.00 0.00 43 990.0
20260506100636 23 90 0.0 1.6 0.00 0.00 0.00 43 990.1
20260506100136 23 90 1.6 1.6 0.00 0.00 0.00 43 990.0
20260506095635 23 22 0.0 1.6 0.00 0.00 0.00 43 990.2
20260506095135 23 67 1.6 1.6 0.00 0.00 0.00 42 990.4
20260506094635 23 202 0.0 1.6 0.00 0.00 0.00 42 990.5
20260506094224 23 90 0.0 0.0 0.00 0.00 0.00 42 990.5
20260506094134 23 90 0.0 0.0 0.00 0.00 0.00 42 990.5
20260506093634 23 90 0.0 0.0 0.00 0.00 0.00 41 990.4
20260506093135 23 67 0.0 0.0 0.00 0.00 0.00 40 990.4
20260506092634 23 202 0.0 0.0 0.00 0.00 0.00 40 990.5
20260506092133 23 180 0.0 3.2 0.00 0.00 0.00 40 990.4
20260506091633 23 202 0.0 0.0 0.00 0.00 0.00 40 990.2
20260506091133 23 202 0.0 0.0 0.00 0.00 0.00 40 990.4
20260506090632 23 202 0.0 0.0 0.00 0.00 0.00 39 990.3
20260506090132 23 225 0.0 0.0 0.00 0.00 0.00 39 990.3
20260506085632 23 180 0.0 0.0 0.00 0.00 0.00 39 990.2
20260506085132 23 45 0.0 0.0 0.00 0.00 0.00 39 990.1
20260506084631 23 112 0.0 0.0 0.00 0.00 0.00 39 989.9
20260506084131 23 157 0.0 0.0 0.00 0.00 0.00 39 990.0
20260506083631 23 157 0.0 0.0 0.00 0.00 0.00 39 990.0
20260506083132 23 180 0.0 0.0 0.00 0.00 0.00 39 989.9
20260506082630 23 90 0.0 0.0 0.00 0.00 0.00 40 989.8
20260506081629 23 90 0.0 0.0 0.00 0.00 0.00 42 990.0
20260506081129 22 90 0.0 0.0 0.00 0.00 0.00 42 989.8
20260506080629 22 90 0.0 0.0 0.00 0.00 0.00 43 989.8
20260506080128 22 90 0.0 0.0 0.00 0.00 0.00 44 989.9
20260506073127 21 67 0.0 0.0 0.00 0.00 0.00 47 990.3
20260506072627 21 112 0.0 0.0 0.00 0.00 0.00 47 990.4
20260506072126 21 112 0.0 0.0 0.00 0.00 0.00 47 990.4
20260506071626 21 112 0.0 0.0 0.00 0.00 0.00 48 990.4
20260506071126 20 112 0.0 0.0 0.00 0.00 0.00 48 990.5
20260506070625 20 112 0.0 0.0 0.00 0.00 0.00 48 990.2
20260506070125 20 112 0.0 0.0 0.00 0.00 0.00 48 990.4
20260506062123 21 67 0.0 0.0 0.00 0.00 0.00 50 990.7
20260506061622 22 67 0.0 0.0 0.00 0.00 0.00 48 990.7
20260506061127 22 67 0.0 0.0 0.00 0.00 0.00 49 990.9
20260506061122 22 67 0.0 0.0 0.00 0.00 0.00 49 990.9
20260506060622 22 67 0.0 0.0 0.00 0.00 0.00 51 990.7
20260506060122 22 67 0.0 0.0 0.00 0.00 0.00 52 990.7
20260506051119 19 90 0.0 0.0 0.00 0.00 0.00 64 991.1
20260506050619 18 135 0.0 0.0 0.00 0.00 0.00 67 991.3
20260506050118 18 157 0.0 0.0 0.00 0.00 0.00 69 991.1
20260506045124 16 180 0.0 0.0 0.00 0.00 0.00 73 799.0
20260506045118 16 180 0.0 0.0 0.00 0.00 0.00 73 990.7
20260506044617 16 180 0.0 0.0 0.00 0.00 0.00 74 990.6
20260506044117 15 180 0.0 0.0 0.00 0.00 0.00 76 990.6
20260506043617 15 180 0.0 0.0 0.00 0.00 0.00 76 990.8
20260506043116 15 180 0.0 3.2 0.00 0.00 0.00 77 990.8
20260506042618 14 180 0.0 1.6 0.00 0.00 0.00 78 991.0
20260506042116 14 180 1.6 1.6 0.00 0.00 0.00 81 990.8
20260506041115 12 157 0.0 0.0 0.00 0.00 0.00 83 991.1
20260506040615 12 180 0.0 0.0 0.00 0.00 0.00 82 991.4
20260506040115 12 180 0.0 0.0 0.00 0.00 0.00 82 991.4
20260506035614 12 180 0.0 0.0 0.00 0.00 0.00 82 991.2
20260506035114 12 180 0.0 0.0 0.00 0.00 0.00 82 991.3
20260506034614 12 180 0.0 0.0 0.00 0.00 0.00 82 991.3
20260506034113 12 180 0.0 0.0 0.00 0.00 0.00 82 991.3
20260506033613 11 180 0.0 0.0 0.00 0.00 0.00 82 991.3
20260506033113 11 180 0.0 0.0 0.00 0.00 0.00 83 991.3
20260506032612 11 180 0.0 0.0 0.00 0.00 0.00 83 991.2
20260506032112 11 180 0.0 0.0 0.00 0.00 0.00 83 991.3
20260506031613 11 180 0.0 0.0 0.00 0.00 0.00 83 991.4
20260506031112 11 180 0.0 0.0 0.00 0.00 0.00 82 991.4
20260506030611 11 135 0.0 0.0 0.00 0.00 0.00 82 991.4
20260506030111 10 45 0.0 0.0 0.00 0.00 0.00 81 991.3
20260506025611 10 45 0.0 0.0 0.00 0.00 0.00 81 991.2
20260506025110 11 157 0.0 0.0 0.00 0.00 0.00 81 991.3
20260506024610 11 90 0.0 0.0 0.00 0.00 0.00 81 991.3
20260506024110 11 180 0.0 0.0 0.00 0.00 0.00 81 991.3
20260506023610 11 180 0.0 0.0 0.00 0.00 0.00 81 991.4
20260506023109 11 180 0.0 0.0 0.00 0.00 0.00 81 991.4
20260506022610 11 180 0.0 0.0 0.00 0.00 0.00 81 991.4
20260506022109 11 180 0.0 0.0 0.00 0.00 0.00 81 991.4
20260506021608 11 180 0.0 0.0 0.00 0.00 0.00 81 991.6
20260506021108 11 180 0.0 0.0 0.00 0.00 0.00 81 991.5
20260506020608 11 180 0.0 0.0 0.00 0.00 0.00 80 991.7
20260506020107 11 180 0.0 0.0 0.00 0.00 0.00 80 991.7
20260506015607 11 180 0.0 0.0 0.00 0.00 0.00 80 991.6
20260506015107 11 180 0.0 0.0 0.00 0.00 0.00 80 991.6
20260506014607 11 180 0.0 0.0 0.00 0.00 0.00 80 991.6
20260506014106 11 180 0.0 0.0 0.00 0.00 0.00 80 991.6
20260506013606 11 180 0.0 0.0 0.00 0.00 0.00 80 991.5
20260506013106 11 180 0.0 0.0 0.00 0.00 0.00 80 991.7
20260506012605 11 157 0.0 0.0 0.00 0.00 0.00 80 991.8
20260506012105 11 157 0.0 0.0 0.00 0.00 0.00 80 991.7
20260506011605 11 157 0.0 0.0 0.00 0.00 0.00 80 991.8
20260506011105 12 180 0.0 0.0 0.00 0.00 0.00 80 991.6
20260506010604 12 180 0.0 0.0 0.00 0.00 0.00 80 991.6
20260506010104 12 157 0.0 0.0 0.00 0.00 0.00 80 991.7
20260506005604 12 157 0.0 0.0 0.00 0.00 0.00 80 991.6
20260506005103 12 67 0.0 0.0 0.00 0.00 0.00 80 991.8
20260506004604 12 112 0.0 0.0 0.00 0.00 0.00 80 991.7
20260506004103 12 337 0.0 0.0 0.00 0.00 0.00 80 991.7
20260506001104 13 157 0.0 0.0 0.00 0.00 0.00 79 991.3
20260506000603 13 180 0.0 0.0 0.00 0.00 0.00 79 991.4
20260505235602 13 180 0.0 0.0 0.00 0.00 0.00 78 991.4
20260505235102 13 180 0.0 0.0 0.00 0.00 0.00 78 991.4
20260505234602 14 180 0.0 0.0 0.00 0.00 0.00 78 991.4
20260505234104 14 180 0.0 0.0 0.00 0.00 0.00 77 991.4
20260505233601 14 180 0.0 0.0 0.00 0.00 0.00 78 991.4
20260505233101 14 180 0.0 0.0 0.00 0.00 0.00 77 991.5
20260505232601 14 180 0.0 0.0 0.00 0.00 0.00 77 991.5
20260505232100 14 180 0.0 0.0 0.00 0.00 0.00 77 991.4
20260505231600 14 180 0.0 0.0 0.00 0.00 0.00 78 991.2
20260505231101 14 180 0.0 0.0 0.00 0.00 0.00 77 991.4
20260505230559 15 180 0.0 0.0 0.00 0.00 0.00 77 991.3
20260505230059 15 157 0.0 0.0 0.00 0.00 0.00 75 991.3
20260505225559 15 135 0.0 0.0 0.00 0.00 0.00 75 991.1
20260505225058 15 202 0.0 0.0 0.00 0.00 0.00 75 991.3
20260505224558 15 180 0.0 0.0 0.00 0.00 0.00 75 991.1
20260505224058 15 180 0.0 0.0 0.00 0.00 0.00 73 991.2
20260505223557 15 135 0.0 0.0 0.00 0.00 0.00 73 991.1
20260505223057 15 180 0.0 0.0 0.00 0.00 0.00 72 991.2
20260505222557 16 157 0.0 0.0 0.00 0.00 0.00 72 991.2
20260505222057 16 180 0.0 1.6 0.00 0.00 0.00 72 991.2
20260505221556 16 180 1.6 1.6 0.00 0.00 0.00 72 991.2
20260505221056 16 135 1.6 1.6 0.00 0.00 0.00 72 991.2
20260505220556 16 180 0.0 0.0 0.00 0.00 0.00 71 991.2
20260505220055 17 157 0.0 0.0 0.00 0.00 0.00 71 991.2
20260505215556 17 135 0.0 9.7 0.00 0.00 0.00 71 991.3
20260505215055 17 180 9.7 9.7 0.00 0.00 0.00 73 991.2
20260505214555 17 202 0.0 0.0 0.00 0.00 0.00 72 991.3
20260505214054 17 180 0.0 1.6 0.00 0.00 0.00 69 991.2
20260505213554 17 135 1.6 1.6 0.00 0.00 0.00 69 991.2
20260505213059 15 157 0.0 0.0 0.00 0.00 0.00 68 991.2
20260505213054 17 157 0.0 0.0 0.00 0.00 0.00 68 991.2
20260505212553 17 180 0.0 1.6 0.00 0.00 0.00 70 991.1
20260505212053 17 180 1.6 1.6 0.00 0.00 0.00 68 991.1
20260505211553 17 180 0.0 6.4 0.00 0.00 0.00 67 991.2
20260505211053 17 180 6.4 6.4 0.00 0.00 0.00 66 991.1
20260505210552 17 135 0.0 1.6 0.00 0.00 0.00 66 991.1
20260505210052 18 180 1.6 1.6 0.00 0.00 0.00 63 991.3
20260505205552 18 135 1.6 6.4 0.00 0.00 0.00 62 991.1
20260505205051 18 157 4.8 4.8 0.00 0.00 0.00 60 991.1
20260505204551 18 180 0.0 8.0 0.00 0.00 0.00 59 991.1
20260505204051 18 202 8.0 8.0 0.00 0.00 0.00 54 991.0
20260505203550 18 157 0.0 0.0 0.00 0.00 0.00 52 991.0
20260505203050 18 180 0.0 0.0 0.00 0.00 0.00 46 991.1
20260505202550 18 157 0.0 11.3 0.00 0.00 0.00 46 990.9
20260505202050 19 0 0.0 0.0 0.00 0.00 0.00 43 990.9
20260505201549 19 292 0.0 0.0 0.00 0.00 0.00 41 990.9
20260505201050 19 45 0.0 3.2 0.00 0.00 0.00 38 990.9
20260505200549 19 22 3.2 3.2 0.00 0.00 0.00 37 991.0
20260505200048 18 22 3.2 3.2 0.00 0.00 0.00 37 990.8
20260505195548 18 0 0.0 0.0 0.00 0.00 0.00 38 990.6
20260505195048 19 90 0.0 0.0 0.00 0.00 0.00 36 990.5
20260505194548 19 90 0.0 0.0 0.00 0.00 0.00 35 990.4
20260505194047 19 90 0.0 0.0 0.00 0.00 0.00 35 990.4
20260505193547 20 90 0.0 0.0 0.00 0.00 0.00 35 990.4
20260505193049 20 90 0.0 0.0 0.00 0.00 0.00 35 990.5
20260505192546 20 90 0.0 0.0 0.00 0.00 0.00 34 990.4
20260505192046 20 90 0.0 0.0 0.00 0.00 0.00 34 990.4
20260505191546 20 90 0.0 0.0 0.00 0.00 0.00 34 990.4
20260505191046 20 90 0.0 0.0 0.00 0.00 0.00 34 990.5
20260505190545 20 90 0.0 0.0 0.00 0.00 0.00 34 990.4
20260505190045 20 90 0.0 0.0 0.00 0.00 0.00 33 990.5
20260505185545 21 90 0.0 0.0 0.00 0.00 0.00 33 990.4
20260505185044 21 90 0.0 0.0 0.00 0.00 0.00 33 990.3
20260505184544 21 90 0.0 0.0 0.00 0.00 0.00 33 990.6
20260505184044 21 90 0.0 0.0 0.00 0.00 0.00 33 990.5
20260505183543 21 90 0.0 0.0 0.00 0.00 0.00 32 990.5
20260505183043 21 90 0.0 0.0 0.00 0.00 0.00 32 990.5
20260505182543 21 90 0.0 0.0 0.00 0.00 0.00 32 990.4
20260505182043 21 90 0.0 0.0 0.00 0.00 0.00 32 990.3
20260505181542 22 90 0.0 0.0 0.00 0.00 0.00 31 990.4
20260505181042 22 90 0.0 0.0 0.00 0.00 0.00 30 990.3